User: anonymous   Login
Location: Feydey
(46.3431°N, 7.0106°E)
Time: 15:56:52
(UTC+00:00)
Language:

Cosmos 2297 - Orbit

View from above orbital plane
View from above orbital plane
View from above satellite
View from above satellite

Ground track
Ground track

The orbit data is extracted from the following two-line orbital elements,

1 23404U 94077A   21269.73270399  .00000242  00000-0  15346-3 0  9990
2 23404  71.0103 261.9324 0017300 292.8639  67.0656 14.13548895384838
Epoch (UTC): 26 September 2021 17:35:05
Eccentricity: 0.0017300
inclination: 71.0103°
perigee height: 835 km
apogee height: 860 km
right ascension of ascending node: 261.9324°
argument of perigee: 292.8639°
revolutions per day: 14.13548895
mean anomaly at epoch: 67.0656°
orbit number at epoch: 38483

The dashed part of the orbit path shows where the satellite is in the earth's shadow,  

DLR